Regional Weather Roundup
Issued by NWS Sioux Falls, SD

Home | Current Version | Previous Version | Graphics & Text | Print | Product List | Glossary Off
Versions: 1 2 3 4 5 6 7 8 9 10 11 12 13 14 15 16 17 18 19 20 21 22 23 24 25 26 27 28 29 30 31 32 33 34 35 36 37 38 39 40 41 42 43 44 45 46 47 48 49 50

410
ASUS43 KFSD 220302
RWRFSD

WEATHER ROUNDUP FOR SE SOUTH DAKOTA/SW MINNESOTA/NW IOWA
NATIONAL WEATHER SERVICE SIOUX FALLS SD
1000 PM CDT THU MAY 21 2015

NOTE: "FAIR" INDICATES FEW OR NO CLOUDS BELOW 12,000 FEET WITH NO
SIGNIFICANT WEATHER AND OR OBSTRUCTIONS TO VISIBILITY.


SDZ038>040-050-052>070-220400-
SOUTHEAST SOUTH DAKOTA

CITY           SKY/WX    TMP DP  RH WIND       PRES   REMARKS
BROOKINGS      CLEAR     61  36  39 CALM      30.14R
CHAMBERLAIN    CLEAR     50  40  67 SW9       30.15S
HURON          MOCLDY    61  40  45 NW7       30.12R
MADISON        FAIR      59  37  44 N3        30.13R
MITCHELL       CLEAR     62  40  44 W9        30.13R
SIOUX FALLS    PTCLDY    58  39  49 CALM      30.12R
WINNER         FAIR      62  29  28 S3        30.16S
YANKTON        CLEAR     61  39  44 W8        30.14R
$$

MNZ071-072-080-081-089-090-097-098-220400-
SOUTHWEST MINNESOTA

CITY           SKY/WX    TMP DP  RH WIND       PRES   REMARKS
FAIRMONT       CLEAR     57  28  33 NW6       30.10R
JACKSON        CLEAR     57  27  30 NW5       30.12R
LUVERNE        CLEAR     61  37  41 CALM      30.13R
MARSHALL       CLEAR     61  28  29 N6        30.11R
MONTEVIDEO     CLEAR     57  34  41 N6        30.12R
PIPESTONE      CLEAR     61  34  36 NE1       30.13R
REDWOOD FALLS  CLEAR     61  31  32 NW8       30.09R
TRACY          CLEAR     59  31  34 CALM      30.12R
WINDOM         CLEAR     54  30  40 CALM      30.12R
WORTHINGTON    CLEAR     54  28  37 CALM      30.13R
$$

IAZ001>003-012>014-020>022-031-032-NEZ013-014-SDZ071-220400-
NORTHWEST IOWA

CITY           SKY/WX    TMP DP  RH WIND       PRES   REMARKS
DENISON        CLEAR     59  39  47 CALM      30.12R
ESTHERVILLE    CLEAR     55  29  36 NW7       30.10R
SIOUX CITY     CLEAR     61  36  39 W6        30.13S
SPENCER        CLEAR     58  33  39 N7        30.12R
$$

ABBREVIATIONS USED IN REMARKS
   TC - TEMPERATURE IN CELSIUS
  WCI - WIND CHILL INDEX
   HX - HEAT INDEX
  VSB - VISIBILITY




USA.gov is the U.S. government's official web portal to all federal, state and local government web resources and services.